Regional Weather Roundup
Issued by NWS Bismarck, ND

Home | Current Version | Previous Version | Text Only | Print | Product List | Glossary On
Versions: 1 2 3 4 5 6 7 8 9 10 11 12 13 14 15 16 17 18 19 20 21 22 23 24 25 26 27 28 29 30 31 32 33 34 35 36 37 38 39 40 41 42 43 44 45 46 47 48 49 50
000
ASUS43 KBIS 260201
RWRBIS

NWR BROADCAST TEXT
NATIONAL WEATHER SERVICE BISMARCK ND
800 PM CST SUN JAN 25 2015

NOTE: "FAIR" INDICATES FEW OR NO CLOUDS BELOW 12,000 FEET WITH NO
SIGNIFICANT WEATHER AND/OR OBSTRUCTIONS TO VISIBILITY.


CITY           SKY/WX    TMP DP  RH WIND       PRES   REMARKS
WILLISTON      MOCLDY    40  33  76 SW9       29.80R
MINOT          CLOUDY    37  31  78 SW18G28   29.73F
MINOT AFB      CLOUDY    37  36  98 SW12      29.71F
BISMARCK       CLOUDY    36  32  85 S3        29.84F
DICKINSON      MOCLDY    43  34  70 W14       29.81F
GARRISON         N/A     35  32  88 S8        29.77F
HETTINGER ARPT MOCLDY    42  33  70 W12       29.87F
JAMESTOWN      CLOUDY    31  29  92 S8        29.86F
CARRINGTON     MOCLDY    30  30 100 MISG      29.84F
CROSBY         FAIR      39  36  87 W22G30    29.74S
HAZEN          FAIR      37  32  81 SW12      29.80F
LINTON         FAIR      32  32 100 CALM      29.88S
OAKES            N/A     28  28 100 S12       29.93S WCI  18
WATFORD CITY   FAIR      37  32  81 SW13      29.79R
$$

CITY           SKY/WX    TMP DP  RH WIND       PRES   REMARKS
GRAND FORKS    CLOUDY    26  19  74 S15       29.85F WCI  14
GRAND FORKS AF CLOUDY    26  20  79 SW12      29.84F WCI  16
DEVILS LAKE    MOCLDY    28  25  86 S13       29.77F WCI  18
FARGO          CLOUDY    26  19  74 S12       29.92F WCI  16
GWINNER        CLOUDY    30  30 100 S10       29.94F
$$

CITY           SKY/WX    TMP DP  RH WIND       PRES   REMARKS
ABERDEEN       CLOUDY    31  29  92 S7        29.96F
MOBRIDGE       CLOUDY    35  30  82 SE8       29.88F
BUFFALO          N/A     39  33  79 W12       29.85F
RAPID CITY     CLEAR     36  22  56 CALM      29.96R
GLASGOW        CLEAR     41  34  76 W7        29.89R
SIDNEY         CLEAR     37  34  87 SE9       29.85S
WOLF POINT     CLEAR     39  33  79 W6        29.87R
GLENDIVE       CLEAR     41  36  81 W10       29.90R
MILES CITY     PTCLDY    42  34  73 NW6       29.94R
BAKER          PTCLDY    41  34  76 W15       29.92R
$$

CITY           SKY/WX    TMP DP  RH WIND       PRES   REMARKS
BILLINGS       CLOUDY    55  29  36 SW17G24   30.04R
GREAT FALLS    CLOUDY    52  31  44 SW21      30.06S
$$



USA.gov is the U.S. government's official web portal to all federal, state and local government web resources and services.